[[{"header":{"parameterUnit":"m.s-1","parameterCategory":1,"la1":30.2992,"la2":30.254,"lo1":-89.0895,"lo2":-89.0443,"dy":0.0025,"dx":0.0025,"nx":19,"ny":19,"refTime":"2026-04-18T09:00:00:Z","depth":0,"parameterNumber":2,"parameterNumberName":"U-component_of_WINDS"},"data":[0,0,0,1.5059,1.5062,1.5195,1.5195,1.5357,1.5358,0,0,0,0,0,0,0,0,0,0,0,1.5017,1.5018,1.5059,1.5062,1.5195,1.5196,1.5356,1.5358,0,0,0,0,0,0,0,0,0,0,0,1.5017,1.5018,1.5019,1.5063,1.5195,1.5196,1.5356,1.5258,0,0,0,0,0,0,0,0,0,0,1.5131,1.509,1.5018,1.5019,1.5064,1.5195,1.5196,1.5254,1.5264,1.5293,0,1.532,0,1.5342,1.5368,1.5369,0,0,0,1.5064,1.5081,1.5119,1.5019,1.5065,1.5194,1.5136,1.526,1.5272,1.5307,1.5323,1.5329,1.5344,1.5369,1.537,1.5532,1.5533,0,0,1.5057,1.5039,1.5111,1.5127,1.5108,1.5131,1.514,1.5267,1.5282,1.5323,1.5333,1.5347,1.537,1.5372,1.5532,1.5533,0,0,0,1.5035,1.5034,1.5069,1.512,1.5145,1.5135,1.5145,1.5276,1.5289,1.5334,1.5349,1.5371,1.5373,1.5531,1.5532,1.5546,0,0,0,1.503,1.5021,1.5066,1.5057,1.5142,1.5213,1.5151,1.528,1.5296,1.5348,1.5371,1.5375,1.553,1.5532,1.5545,1.5556,0,0,0,1.5009,1.5019,1.5037,1.5055,1.5112,1.5211,1.5232,1.5284,1.5304,1.5369,1.5375,1.553,1.5531,1.5543,1.5553,1.5591,0,0,0,1.4982,1.505,1.5037,1.5118,1.5111,1.522,1.5231,1.5313,1.5371,1.5372,1.5531,1.5532,1.5542,1.5551,1.5589,1.5618,1.5629,0,0,1.5057,1.5058,1.5107,1.51,1.5206,1.5201,1.531,1.5379,1.5401,1.5487,1.5491,1.5545,1.5553,1.559,1.5702,1.571,0,0,0,1.5125,1.5159,1.5192,1.5245,1.53,1.5346,1.5401,1.5426,1.5499,1.5442,1.5571,1.5576,1.5599,1.5613,1.5621,1.5639,1.5539,1.5539,1.5538,1.5206,1.523,1.5311,1.535,1.5402,1.5456,1.5499,1.5541,1.5552,1.5582,1.5606,1.5671,1.5688,1.5693,1.5713,1.5626,1.5626,1.5626,1.5626,1.5316,1.5367,1.5377,1.5459,1.5483,1.5552,1.5605,1.5609,1.5675,1.5656,1.5677,1.5651,1.5702,1.572,1.5627,1.5627,1.5627,1.5627,1.5627,1.537,1.5398,1.5427,1.5505,1.5561,1.5599,1.566,1.568,1.57,1.5721,1.5747,1.5747,1.5746,1.5732,1.5733,1.5733,1.5733,1.5733,1.5733,1.5412,1.5445,1.5495,1.5556,1.5591,1.564,1.5693,1.5727,1.577,1.578,1.578,1.5785,1.5704,1.5681,1.5737,1.5736,1.5736,1.5735,1.5735,1.5511,1.5491,1.5568,1.5603,1.5674,1.5727,1.5752,1.582,1.5851,1.588,1.588,1.5818,1.582,1.5814,1.5795,1.5877,1.5877,1.5877,1.5877,1.5554,1.5557,1.5638,1.5692,1.5747,1.5777,1.5859,1.5899,1.5938,1.5958,1.5949,1.5927,1.592,1.5926,1.5918,1.59,1.6007,1.6007,1.6007,1.5614,1.5622,1.569,1.5728,1.5784,1.5831,1.5908,1.5967,1.6007,1.6013,1.5973,1.5967,1.5932,1.592,1.5923,1.591,1.5878,0,0]},{"header":{"parameterUnit":"m.s-1","parameterCategory":1,"la1":30.2992,"la2":30.254,"lo1":-89.0895,"lo2":-89.0443,"dy":0.0025,"dx":0.0025,"nx":19,"ny":19,"refTime":"2026-04-18T09:00:00:Z","depth":0,"parameterNumber":3,"parameterNumberName":"V-component_of_WINDS"},"data":[0,0,0,3.4731,3.4733,3.4845,3.4845,3.4996,3.4997,0,0,0,0,0,0,0,0,0,0,0,3.4706,3.4707,3.4731,3.4734,3.4845,3.4845,3.4996,3.4997,0,0,0,0,0,0,0,0,0,0,0,3.4705,3.4707,3.4709,3.4734,3.4845,3.4845,3.4995,3.4908,0,0,0,0,0,0,0,0,0,0,3.4798,3.4784,3.4707,3.4709,3.4735,3.4845,3.4845,3.4903,3.4913,3.495,0,3.4987,0,3.4995,3.5008,3.5009,0,0,0,3.4727,3.4776,3.4798,3.4709,3.4736,3.4845,3.4793,3.4909,3.492,3.4963,3.4989,3.4995,3.4997,3.5009,3.501,3.5246,3.5248,0,0,3.4721,3.473,3.4791,3.4806,3.4792,3.4789,3.4796,3.4915,3.4944,3.499,3.4998,3.5,3.501,3.5012,3.5245,3.5247,0,0,0,3.4708,3.4726,3.4746,3.48,3.482,3.4793,3.4801,3.4938,3.4944,3.4999,3.5002,3.5011,3.5013,3.5244,3.5246,3.5323,0,0,0,3.4704,3.4718,3.4743,3.475,3.4818,3.4881,3.4822,3.4936,3.4949,3.5001,3.5011,3.5015,3.5242,3.5245,3.5317,3.5358,0,0,0,3.4696,3.4717,3.4736,3.475,3.4799,3.4879,3.4891,3.4938,3.4951,3.5009,3.5015,3.5241,3.5244,3.5313,3.535,3.542,0,0,0,3.469,3.4805,3.4738,3.4866,3.4798,3.4927,3.489,3.4986,3.5045,3.5012,3.5242,3.5245,3.5311,3.5345,3.5415,3.5481,3.551,0,0,3.484,3.4824,3.4898,3.4841,3.4985,3.4909,3.5063,3.5109,3.5105,3.5199,3.5204,3.5319,3.5349,3.5419,3.5669,3.5692,0,0,0,3.4949,3.5002,3.5038,3.5095,3.5133,3.5167,3.5188,3.5204,3.5282,3.5156,3.5364,3.5382,3.5423,3.5453,3.5473,3.5506,3.5261,3.526,3.526,3.5175,3.5163,3.5285,3.5286,3.5342,3.536,3.5403,3.5427,3.5401,3.545,3.5478,3.5631,3.5667,3.5682,3.5716,3.5512,3.5513,3.5513,3.5513,3.5392,3.5465,3.5424,3.5528,3.5514,3.56,3.562,3.5598,3.5674,3.561,3.5645,3.5575,3.5707,3.5736,3.5519,3.5518,3.5517,3.5517,3.5516,3.5537,3.557,3.5587,3.5665,3.5726,3.5722,3.5796,3.5781,3.5768,3.5803,3.5828,3.5826,3.5821,3.5816,3.5816,3.5817,3.5817,3.5818,3.5818,3.5681,3.5698,3.5763,3.5809,3.5841,3.5881,3.5898,3.5928,3.5958,3.5941,3.5941,3.5908,3.5723,3.5676,3.5826,3.5825,3.5824,3.5823,3.5822,3.5903,3.585,3.595,3.5982,3.6032,3.6091,3.6071,3.6133,3.6156,3.6192,3.615,3.6016,3.5998,3.5983,3.5943,3.6154,3.6154,3.6154,3.6154,3.6025,3.6014,3.6111,3.6162,3.621,3.6201,3.631,3.6322,3.6326,3.6338,3.6306,3.6253,3.6237,3.6228,3.6207,3.617,3.6434,3.6434,3.6434,3.6159,3.6151,3.6249,3.6253,3.629,3.6321,3.6422,3.648,3.6474,3.6445,3.6347,3.6335,3.6249,3.6223,3.6192,3.616,3.6092,0,0]}]]